Location: Taschereau
(48.6670°N, 78.7000°W)
Time: 05:41:31
(UTC-04:00)

ISS - Pass Details

Date: 03 July 2019
Orbit: 409 x 418 km, 51.6° (Epoch: 24 July)

Event Time Altitude Azimuth Distance (km) Brightness Sun altitude
Exits shadow 04:19:04 10° 212° (SSW) 1,445 -1.7 -7.9°
Maximum altitude 04:22:01 34° 146° (SE) 704 -2.7 -7.5°
Drops below altitude 10° 04:25:03 10° 80° (E) 1,477 -0.1 -7.2°
Sets 04:27:15 0° 71° (ENE) 2,341 1.3 -7.0°
